DB0NLS-15 Weather Reports


Display with metric or nautical units.
time (UTC)temp
F
wind
direction
speed
MPH
gust
MPH
rain 1hr
in
rain 24hr
in
rain mn
in
humidity
%
barometer
mb
20260507044051 47 41 1.0 2.0 0.00 0.25 0.25 90 998.3
20260507043048 47 40 1.0 4.0 0.00 0.25 0.25 90 998.1
20260507042045 47 45 1.0 4.0 0.00 0.25 0.25 90 998.0
20260507041043 47 35 1.0 2.0 0.00 0.25 0.25 90 997.9
20260507040040 47 36 1.0 4.0 0.00 0.25 0.25 90 997.7
20260507035038 47 15 1.0 4.0 0.00 0.25 0.25 90 997.7
20260507034035 47 5 1.0 4.0 0.00 0.25 0.25 90 997.6
20260507033032 47 33 1.0 4.0 0.00 0.25 0.25 90 997.5
20260507032030 47 27 1.0 4.0 0.00 0.25 0.25 90 997.5
20260507031027 48 36 1.0 4.0 0.01 0.25 0.25 90 997.4
20260507030024 47 45 2.0 4.0 0.01 0.25 0.25 90 997.3
20260507025022 47 26 1.0 4.0 0.02 0.25 0.25 90 997.2
20260507024019 48 344 0.0 4.0 0.02 0.25 0.25 90 997.1
20260507023016 47 37 1.0 4.0 0.05 0.25 0.25 90 997.0
20260507022114 48 37 2.0 4.0 0.06 0.25 0.25 90 996.9
20260507021111 48 30 2.0 7.0 0.07 0.24 0.24 90 996.7
20260507020109 48 37 2.0 6.0 0.09 0.24 0.24 90 996.5
20260507015106 48 21 3.0 7.0 0.12 0.22 0.22 90 996.4
20260507014103 48 46 3.0 7.0 0.13 0.22 0.22 90 996.5
20260507013101 48 20 3.0 7.0 0.13 0.20 0.20 90 996.5
20260507012058 49 39 3.0 8.0 0.13 0.19 0.19 90 996.5
20260507011055 49 42 3.0 6.0 0.13 0.17 0.17 90 996.5
20260507010053 49 45 4.0 7.0 0.12 0.14 0.14 90 996.4
20260507005050 49 27 2.0 6.0 0.11 0.11 0.11 89 996.5
20260507004047 49 48 2.0 4.0 0.09 0.09 0.09 89 996.6
20260507003045 49 37 3.0 7.0 0.07 0.07 0.07 89 996.6
20260507002042 49 42 2.0 6.0 0.06 0.06 0.06 88 996.6
20260507001039 50 45 1.0 4.0 0.04 0.04 0.04 87 996.6
20260507000037 50 38 1.0 4.0 0.02 0.04 0.02 86 996.6
20260506235033 50 0 1.0 2.0 0.00 0.02 0.00 84 996.9
20260506234030 50 337 2.0 4.0 0.00 0.02 0.00 83 997.0
20260506233028 50 356 3.0 8.0 0.00 0.07 0.00 83 996.8
20260506232025 50 349 2.0 7.0 0.00 0.08 0.00 83 996.5
20260506231023 51 24 2.0 7.0 0.00 0.09 0.00 83 996.4
20260506230020 51 355 1.0 4.0 0.00 0.12 0.00 83 996.4
20260506225017 51 42 2.0 6.0 0.00 0.14 0.00 83 996.2
20260506224015 51 39 1.0 4.0 0.00 0.21 0.00 83 996.2
20260506223112 51 6 1.0 4.0 0.00 0.30 0.00 83 996.4
20260506222110 51 37 3.0 6.0 0.00 0.30 0.00 83 996.1
20260506221107 51 39 2.0 8.0 0.00 0.31 0.00 83 996.1
20260506220104 52 44 4.0 9.0 0.00 0.32 0.00 82 996.2
20260506215102 52 45 3.0 7.0 0.00 0.33 0.33 82 996.1
20260506214059 52 23 2.0 4.0 0.00 0.34 0.33 82 995.9
20260506213057 52 42 2.0 4.0 0.00 0.34 0.33 82 995.8
20260506212054 52 22 4.0 8.0 0.00 0.34 0.33 82 995.7
20260506211051 53 25 2.0 6.0 0.00 0.39 0.33 82 995.7
20260506210049 53 35 2.0 8.0 0.00 0.40 0.33 82 995.8
20260506205046 53 20 3.0 8.0 0.00 0.40 0.33 82 995.6
20260506204043 54 20 3.0 8.0 0.00 0.40 0.33 82 995.4
20260506203041 54 33 3.0 8.0 0.00 0.40 0.33 82 995.5
20260506202038 54 23 3.0 7.0 0.00 0.40 0.33 81 995.6
20260506201036 54 28 2.0 7.0 0.00 0.40 0.33 81 995.6
20260506200033 54 26 4.0 7.0 0.00 0.40 0.33 81 995.5
20260506195030 54 26 4.0 13.0 0.00 0.40 0.33 81 995.4
20260506194028 54 22 1.0 6.0 0.00 0.40 0.33 81 995.1
20260506193025 55 13 2.0 4.0 0.00 0.40 0.33 81 994.7
20260506192022 55 32 1.0 4.0 0.00 0.40 0.33 81 994.7
20260506191019 55 25 1.0 4.0 0.00 0.40 0.33 80 994.7
20260506190018 55 27 2.0 6.0 0.00 0.40 0.33 80 994.8
20260506185114 56 12 1.0 2.0 0.00 0.40 0.33 79 994.8
20260506184112 56 25 1.0 4.0 0.00 0.40 0.33 79 994.6
20260506183109 57 348 2.0 7.0 0.00 0.40 0.33 78 994.7
20260506182106 57 32 3.0 7.0 0.00 0.40 0.33 77 994.6
20260506181104 58 11 1.0 6.0 0.00 0.40 0.33 77 994.4
20260506175059 58 19 2.0 6.0 0.00 0.40 0.33 76 994.3
20260506174056 59 44 3.0 8.0 0.00 0.40 0.33 74 994.2
20260506173053 59 40 2.0 7.0 0.00 0.40 0.33 73 994.1
20260506172051 60 23 2.0 6.0 0.00 0.40 0.33 73 994.1
20260506171048 60 359 3.0 8.0 0.00 0.40 0.33 72 993.9
20260506170045 61 22 4.0 11.0 0.00 0.40 0.33 70 993.7
20260506165042 61 13 4.0 8.0 0.00 0.40 0.33 70 993.5
20260506164040 62 24 2.0 6.0 0.00 0.40 0.33 70 993.6
20260506163037 62 1 4.0 11.0 0.00 0.40 0.33 69 993.7
20260506162035 62 0 3.0 9.0 0.00 0.40 0.33 69 993.8
20260506161032 62 334 3.0 8.0 0.00 0.40 0.33 69 993.8
20260506160028 63 353 4.0 11.0 0.00 0.40 0.33 67 993.9
20260506155026 64 349 3.0 8.0 0.00 0.40 0.33 66 993.9
20260506154023 63 350 4.0 8.0 0.00 0.40 0.33 66 993.9
20260506153020 64 357 4.0 13.0 0.00 0.40 0.33 66 993.9
20260506152018 64 358 2.0 8.0 0.00 0.40 0.33 64 993.9
20260506151015 65 0 3.0 7.0 0.00 0.40 0.33 62 993.9
20260506150113 66 334 3.0 7.0 0.00 0.40 0.33 59 993.9
20260506145110 66 28 1.0 4.0 0.00 0.40 0.33 59 993.8
20260506144107 67 338 3.0 8.0 0.00 0.40 0.33 59 993.9
20260506143105 66 357 3.0 6.0 0.00 0.40 0.33 60 993.9
20260506142102 67 18 2.0 6.0 0.00 0.40 0.33 60 993.8
20260506141100 67 251 3.0 6.0 0.00 0.40 0.33 59 993.9
20260506140057 65 315 4.0 8.0 0.00 0.40 0.33 63 994.1
20260506135054 65 332 3.0 6.0 0.00 0.40 0.33 63 994.1
20260506134052 65 310 3.0 6.0 0.00 0.40 0.33 61 994.2
20260506133049 65 292 5.0 11.0 0.00 0.40 0.33 62 994.2
20260506132046 64 303 5.0 9.0 0.00 0.40 0.33 64 994.3
20260506131044 65 268 5.0 9.0 0.00 0.40 0.33 61 994.2
20260506130041 65 299 5.0 11.0 0.00 0.40 0.33 60 994.3
20260506125039 65 300 5.0 9.0 0.00 0.40 0.33 60 994.2
20260506124036 65 265 4.0 9.0 0.00 0.40 0.33 61 994.2
20260506123033 66 273 7.0 13.0 0.00 0.40 0.33 60 994.3
20260506122031 64 225 6.0 9.0 0.00 0.40 0.33 62 994.1
20260506121028 64 290 7.0 14.0 0.00 0.40 0.33 63 994.2
20260506120025 64 263 5.0 9.0 0.00 0.40 0.33 65 994.0
20260506115022 64 258 6.0 11.0 0.00 0.40 0.33 64 994.2
20260506114020 65 262 7.0 15.0 0.00 0.40 0.33 65 994.1
20260506113017 64 293 6.0 13.0 0.00 0.40 0.33 66 994.1
20260506112115 65 225 7.0 11.0 0.00 0.40 0.33 63 994.2
20260506111112 64 273 8.0 15.0 0.00 0.40 0.33 65 994.1
20260506110109 63 216 8.0 15.0 0.00 0.40 0.33 68 994.3
20260506105106 63 210 8.0 11.0 0.00 0.40 0.33 68 994.2
20260506104104 62 266 9.0 16.0 0.00 0.40 0.33 68 994.3
20260506103101 62 240 4.0 11.0 0.00 0.40 0.33 71 994.1
20260506102059 62 250 7.0 11.0 0.00 0.40 0.33 71 994.1
20260506101056 62 267 6.0 13.0 0.00 0.40 0.33 69 994.0
20260506100053 62 279 8.0 14.0 0.00 0.40 0.33 67 993.9
20260506095051 63 264 8.0 15.0 0.00 0.40 0.33 66 993.8
20260506094048 63 247 9.0 15.0 0.00 0.40 0.33 66 993.6
20260506093045 62 217 11.0 16.0 0.00 0.40 0.33 67 993.4
20260506092043 62 249 9.0 18.0 0.00 0.40 0.33 68 993.4
20260506091040 62 251 6.0 13.0 0.00 0.40 0.33 68 993.2
20260506090038 62 217 9.0 21.0 0.00 0.40 0.33 68 993.1
20260506085035 62 218 9.0 16.0 0.00 0.40 0.33 69 993.0
20260506084032 62 189 7.0 15.0 0.00 0.40 0.33 69 992.9
20260506083030 61 232 10.0 20.0 0.00 0.40 0.33 73 992.7
20260506082027 60 219 7.0 14.0 0.00 0.40 0.33 74 992.4
20260506081024 61 253 8.0 13.0 0.00 0.40 0.33 74 992.4
20260506073114 60 213 13.0 22.0 0.00 0.40 0.33 74 992.6
20260506072112 60 231 8.0 14.0 0.00 0.40 0.33 77 992.6
20260506071109 60 188 6.0 13.0 0.00 0.40 0.33 78 992.6
20260506070106 59 202 8.0 18.0 0.00 0.40 0.33 78 992.6
20260506062056 58 203 7.0 15.0 0.00 0.41 0.33 81 992.6
20260506061053 57 228 5.0 8.0 0.00 0.41 0.33 84 992.5
20260506051037 56 192 3.0 6.0 0.00 0.41 0.33 87 992.4
20260506045032 55 166 2.0 6.0 0.00 0.41 0.33 88 992.5